owner,sensor,date,latitude,longitude,vertical_datum,direction_of_sea_water_velocity,sea_water_speed,upward_sea_water_velocity,qcFlag 
TABS,ioos:station:wmo:42043:1,2011-08-01T00:00:00Z,28.9818,-94.9186,2.0,215.6276135,16.23981527,-99999.0,'11111222,11111222,99999999' 
TABS,ioos:station:wmo:42043:1,2011-08-01T00:30:00Z,28.9818,-94.9186,2.0,219.6260424,15.55399627,-99999.0,'11111222,11111222,99999999' 
TABS,ioos:station:wmo:42043:1,2011-08-01T01:00:00Z,28.9818,-94.9186,2.0,204.8428315,13.54327139,-99999.0,'11111222,11111222,99999999' 
TABS,ioos:station:wmo:42043:1,2011-08-01T01:30:00Z,28.9818,-94.9186,2.0,228.5349221,13.5314892,-99999.0,'11111222,11111222,99999999' 
TABS,ioos:station:wmo:42043:1,2011-08-01T02:00:00Z,28.9818,-94.9186,2.0,224.9570219,9.496446704,-99999.0,'11133222,11111222,99999999' 
TABS,ioos:station:wmo:42043:1,2011-08-01T02:30:00Z,28.9818,-94.9186,2.0,235.1950297,9.268020285,-99999.0,'11133222,11111222,99999999' 
TABS,ioos:station:wmo:42043:1,2011-08-01T03:00:00Z,28.9818,-94.9186,2.0,252.5948984,8.090414081,-99999.0,'11133222,11111222,99999999' 
TABS,ioos:station:wmo:42043:1,2011-08-01T03:30:00Z,28.9818,-94.9186,2.0,281.5678337,5.236353693,-99999.0,'11133222,11111222,99999999' 
TABS,ioos:station:wmo:42043:1,2011-08-01T04:00:00Z,28.9818,-94.9186,2.0,319.350527,5.127153206,-99999.0,'11133222,11111222,99999999' 
TABS,ioos:station:wmo:42043:1,2011-08-01T04:30:00Z,28.9818,-94.9186,2.0,46.44574527,4.484484363,-99999.0,'11133222,11111222,99999999' 
TABS,ioos:station:wmo:42043:1,2011-08-01T05:00:00Z,28.9818,-94.9186,2.0,10.24199504,8.942488468,-99999.0,'11133222,11111222,99999999' 
TABS,ioos:station:wmo:42043:1,2011-08-01T05:30:00Z,28.9818,-94.9186,2.0,35.8191685,9.705632385,-99999.0,'11133222,11111222,99999999' 
TABS,ioos:station:wmo:42043:1,2011-08-01T06:00:00Z,28.9818,-94.9186,2.0,35.454237,10.36116306,-99999.0,'11111222,11111222,99999999' 
TABS,ioos:station:wmo:42043:1,2011-08-01T06:30:00Z,28.9818,-94.9186,2.0,52.97373348,13.91605188,-99999.0,'11111222,11111222,99999999' 
TABS,ioos:station:wmo:42043:1,2011-08-01T07:00:00Z,28.9818,-94.9186,2.0,34.58804254,14.86779069,-99999.0,'11111222,11111222,99999999' 
TABS,ioos:station:wmo:42043:1,2011-08-01T07:30:00Z,28.9818,-94.9186,2.0,44.74170104,17.24650979,-99999.0,'11111222,11111222,99999999' 
TABS,ioos:station:wmo:42043:1,2011-08-01T08:00:00Z,28.9818,-94.9186,2.0,52.58999814,16.97075426,-99999.0,'11111222,11111222,99999999' 
TABS,ioos:station:wmo:42043:1,2011-08-01T08:30:00Z,28.9818,-94.9186,2.0,63.58135966,17.50846938,-99999.0,'11111222,11111222,99999999' 
TABS,ioos:station:wmo:42043:1,2011-08-01T09:00:00Z,28.9818,-94.9186,2.0,65.49170554,16.1995679,-99999.0,'11111222,11111222,99999999' 
TABS,ioos:station:wmo:42043:1,2011-08-01T09:30:00Z,28.9818,-94.9186,2.0,68.68519053,17.05673181,-99999.0,'11111222,11111222,99999999' 
TABS,ioos:station:wmo:42043:1,2011-08-01T10:00:00Z,28.9818,-94.9186,2.0,73.36187165,19.76763011,-99999.0,'11111222,11111222,99999999' 
TABS,ioos:station:wmo:42043:1,2011-08-01T10:30:00Z,28.9818,-94.9186,2.0,80.8197906,18.36523346,-99999.0,'11111222,11111222,99999999' 
TABS,ioos:station:wmo:42043:1,2011-08-01T11:00:00Z,28.9818,-94.9186,2.0,88.4332231,9.143418398,-99999.0,'11133222,11111222,99999999' 
TABS,ioos:station:wmo:42043:1,2011-08-01T11:30:00Z,28.9818,-94.9186,2.0,156.0129755,2.386063704,-99999.0,'11133222,11111222,99999999' 
TABS,ioos:station:wmo:42043:1,2011-08-01T12:00:00Z,28.9818,-94.9186,2.0,108.7087543,5.954636849,-99999.0,'11133222,11111222,99999999' 
TABS,ioos:station:wmo:42043:1,2011-08-01T12:30:00Z,28.9818,-94.9186,2.0,91.22632499,9.812247449,-99999.0,'11133222,11111222,99999999' 
TABS,ioos:station:wmo:42043:1,2011-08-01T13:00:00Z,28.9818,-94.9186,2.0,103.240489,10.12926453,-99999.0,'11111222,11111222,99999999' 
TABS,ioos:station:wmo:42043:1,2011-08-01T13:30:00Z,28.9818,-94.9186,2.0,89.36340791,2.700166662,-99999.0,'11133222,11111222,99999999' 
TABS,ioos:station:wmo:42043:1,2011-08-01T14:00:00Z,28.9818,-94.9186,2.0,53.72178263,2.51813423,-99999.0,'11133222,11111222,99999999' 
TABS,ioos:station:wmo:42043:1,2011-08-01T14:30:00Z,28.9818,-94.9186,2.0,104.3373111,6.461238271,-99999.0,'11133222,11111222,99999999' 
TABS,ioos:station:wmo:42043:1,2011-08-01T15:00:00Z,28.9818,-94.9186,2.0,103.2694517,9.061942397,-99999.0,'11133222,11111222,99999999' 
TABS,ioos:station:wmo:42043:1,2011-08-01T15:30:00Z,28.9818,-94.9186,2.0,97.96069538,3.826878624,-99999.0,'11133222,11111222,99999999' 
TABS,ioos:station:wmo:42043:1,2011-08-01T16:00:00Z,28.9818,-94.9186,2.0,68.70601474,2.726114451,-99999.0,'11133222,11111222,99999999' 
TABS,ioos:station:wmo:42043:1,2011-08-01T16:30:00Z,28.9818,-94.9186,2.0,270.5236543,2.190091322,-99999.0,'11133222,11111222,99999999' 
TABS,ioos:station:wmo:42043:1,2011-08-01T17:00:00Z,28.9818,-94.9186,2.0,28.37711129,2.545918302,-99999.0,'11133222,11111222,99999999' 
TABS,ioos:station:wmo:42043:1,2011-08-01T17:30:00Z,28.9818,-94.9186,2.0,201.6306258,3.743634598,-99999.0,'11133222,11111222,99999999' 
TABS,ioos:station:wmo:42043:1,2011-08-01T18:00:00Z,28.9818,-94.9186,2.0,226.3016339,4.356902569,-99999.0,'11133222,11111222,99999999' 
TABS,ioos:station:wmo:42043:1,2011-08-01T18:30:00Z,28.9818,-94.9186,2.0,201.3393828,2.995363083,-99999.0,'11133222,11111222,99999999' 
TABS,ioos:station:wmo:42043:1,2011-08-01T19:00:00Z,28.9818,-94.9186,2.0,222.3701764,4.778001674,-99999.0,'11133222,11111222,99999999' 
TABS,ioos:station:wmo:42043:1,2011-08-01T19:30:00Z,28.9818,-94.9186,2.0,220.9461396,2.700833205,-99999.0,'11133222,11111222,99999999' 
TABS,ioos:station:wmo:42043:1,2011-08-01T20:00:00Z,28.9818,-94.9186,2.0,227.619227,7.581035549,-99999.0,'11133222,11111222,99999999' 
TABS,ioos:station:wmo:42043:1,2011-08-01T20:30:00Z,28.9818,-94.9186,2.0,263.099267,4.744365079,-99999.0,'11133222,11111222,99999999' 
TABS,ioos:station:wmo:42043:1,2011-08-01T21:00:00Z,28.9818,-94.9186,2.0,289.5370302,3.289376841,-99999.0,'11133222,11111222,99999999' 
TABS,ioos:station:wmo:42043:1,2011-08-01T21:30:00Z,28.9818,-94.9186,2.0,246.9430392,4.238584669,-99999.0,'11133222,11111222,99999999' 
TABS,ioos:station:wmo:42043:1,2011-08-01T22:00:00Z,28.9818,-94.9186,2.0,299.5307771,1.988290723,-99999.0,'11133222,11111222,99999999' 
TABS,ioos:station:wmo:42043:1,2011-08-01T22:30:00Z,28.9818,-94.9186,2.0,298.9453454,3.553941474,-99999.0,'11133222,11111222,99999999' 
TABS,ioos:station:wmo:42043:1,2011-08-01T23:00:00Z,28.9818,-94.9186,2.0,307.5978574,3.622292092,-99999.0,'11133222,11111222,99999999' 
TABS,ioos:station:wmo:42043:1,2011-08-01T23:30:00Z,28.9818,-94.9186,2.0,1.755849155,2.611225766,-99999.0,'11133222,11111222,99999999' 
TABS,ioos:station:wmo:42043:1,2011-08-02T00:00:00Z,28.9818,-94.9186,2.0,338.9727218,4.124669684,-99999.0,'11133222,11111222,99999999' 
TABS,ioos:station:wmo:42043:1,2011-08-02T00:30:00Z,28.9818,-94.9186,2.0,2.596873174,4.414532818,-99999.0,'11133222,11111222,99999999' 
TABS,ioos:station:wmo:42043:1,2011-08-02T01:00:00Z,28.9818,-94.9186,2.0,355.1876998,5.840590724,-99999.0,'11133222,11111222,99999999' 
TABS,ioos:station:wmo:42043:1,2011-08-02T01:30:00Z,28.9818,-94.9186,2.0,46.51251018,4.286560393,-99999.0,'11133222,11111222,99999999' 
TABS,ioos:station:wmo:42043:1,2011-08-02T02:00:00Z,28.9818,-94.9186,2.0,57.69274109,4.022747817,-99999.0,'11133222,11111222,99999999' 
TABS,ioos:station:wmo:42043:1,2011-08-02T02:30:00Z,28.9818,-94.9186,2.0,76.57264683,4.564778198,-99999.0,'11133222,11111222,99999999' 
TABS,ioos:station:wmo:42043:1,2011-08-02T03:00:00Z,28.9818,-94.9186,2.0,68.80967603,5.920304046,-99999.0,'11133222,11111222,99999999' 
TABS,ioos:station:wmo:42043:1,2011-08-02T03:30:00Z,28.9818,-94.9186,2.0,64.50425543,4.553427281,-99999.0,'11133222,11111222,99999999' 
TABS,ioos:station:wmo:42043:1,2011-08-02T04:00:00Z,28.9818,-94.9186,2.0,66.36680933,8.481326547,-99999.0,'11133222,11111222,99999999' 
TABS,ioos:station:wmo:42043:1,2011-08-02T04:30:00Z,28.9818,-94.9186,2.0,64.88702503,9.00082774,-99999.0,'11133222,11111222,99999999' 
TABS,ioos:station:wmo:42043:1,2011-08-02T05:00:00Z,28.9818,-94.9186,2.0,70.95456368,11.27732238,-99999.0,'11111222,11111222,99999999' 
TABS,ioos:station:wmo:42043:1,2011-08-02T05:30:00Z,28.9818,-94.9186,2.0,88.9504262,13.10219829,-99999.0,'11111222,11111222,99999999' 
TABS,ioos:station:wmo:42043:1,2011-08-02T06:00:00Z,28.9818,-94.9186,2.0,50.96535375,15.51307191,-99999.0,'11111222,11111222,99999999' 
TABS,ioos:station:wmo:42043:1,2011-08-02T06:30:00Z,28.9818,-94.9186,2.0,51.04900487,19.66096895,-99999.0,'11111222,11111222,99999999' 
TABS,ioos:station:wmo:42043:1,2011-08-02T07:00:00Z,28.9818,-94.9186,2.0,54.0640914,17.05626571,-99999.0,'11111222,11111222,99999999' 
TABS,ioos:station:wmo:42043:1,2011-08-02T07:30:00Z,28.9818,-94.9186,2.0,44.71156845,19.65781778,-99999.0,'11111222,11111222,99999999' 
TABS,ioos:station:wmo:42043:1,2011-08-02T08:00:00Z,28.9818,-94.9186,2.0,56.39338063,22.87308681,-99999.0,'11111222,11111222,99999999' 
TABS,ioos:station:wmo:42043:1,2011-08-02T08:30:00Z,28.9818,-94.9186,2.0,55.88688009,24.03581494,-99999.0,'11111222,11111222,99999999' 
TABS,ioos:station:wmo:42043:1,2011-08-02T09:00:00Z,28.9818,-94.9186,2.0,56.24658203,25.05304971,-99999.0,'11111222,11111222,99999999' 
TABS,ioos:station:wmo:42043:1,2011-08-02T09:30:00Z,28.9818,-94.9186,2.0,62.16582864,22.20960378,-99999.0,'11111222,11111222,99999999' 
TABS,ioos:station:wmo:42043:1,2011-08-02T10:00:00Z,28.9818,-94.9186,2.0,63.84635723,21.80222466,-99999.0,'11111222,11111222,99999999' 
TABS,ioos:station:wmo:42043:1,2011-08-02T10:30:00Z,28.9818,-94.9186,2.0,67.29228036,24.06541294,-99999.0,'11111222,11111222,99999999' 
TABS,ioos:station:wmo:42043:1,2011-08-02T11:00:00Z,28.9818,-94.9186,2.0,72.59473982,21.997193,-99999.0,'11111222,11111222,99999999' 
TABS,ioos:station:wmo:42043:1,2011-08-02T11:30:00Z,28.9818,-94.9186,2.0,64.94538602,18.32423532,-99999.0,'11111222,11111222,99999999' 
TABS,ioos:station:wmo:42043:1,2011-08-02T12:00:00Z,28.9818,-94.9186,2.0,72.1825653,13.79149376,-99999.0,'11111222,11111222,99999999' 
TABS,ioos:station:wmo:42043:1,2011-08-02T12:30:00Z,28.9818,-94.9186,2.0,61.85770334,15.43471736,-99999.0,'11111222,11111222,99999999' 
TABS,ioos:station:wmo:42043:1,2011-08-02T13:00:00Z,28.9818,-94.9186,2.0,71.28274898,17.32632967,-99999.0,'11111222,11111222,99999999' 
TABS,ioos:station:wmo:42043:1,2011-08-02T13:30:00Z,28.9818,-94.9186,2.0,73.21546094,13.5053656,-99999.0,'11111222,11111222,99999999' 
TABS,ioos:station:wmo:42043:1,2011-08-02T14:00:00Z,28.9818,-94.9186,2.0,77.59752851,18.20484826,-99999.0,'11111222,11111222,99999999' 
TABS,ioos:station:wmo:42043:1,2011-08-02T14:30:00Z,28.9818,-94.9186,2.0,72.04836381,16.87135146,-99999.0,'11111222,11111222,99999999' 
TABS,ioos:station:wmo:42043:1,2011-08-02T15:00:00Z,28.9818,-94.9186,2.0,74.37962354,23.24864942,-99999.0,'11111222,11111222,99999999' 
TABS,ioos:station:wmo:42043:1,2011-08-02T15:30:00Z,28.9818,-94.9186,2.0,71.87469902,19.89734153,-99999.0,'11111222,11111222,99999999' 
TABS,ioos:station:wmo:42043:1,2011-08-02T16:00:00Z,28.9818,-94.9186,2.0,73.35319936,15.70835765,-99999.0,'11111222,11111222,99999999' 
TABS,ioos:station:wmo:42043:1,2011-08-02T16:30:00Z,28.9818,-94.9186,2.0,66.29926629,20.67367892,-99999.0,'11111222,11111222,99999999' 
TABS,ioos:station:wmo:42043:1,2011-08-02T17:00:00Z,28.9818,-94.9186,2.0,66.4428534,19.09101621,-99999.0,'11111222,11111222,99999999' 
TABS,ioos:station:wmo:42043:1,2011-08-02T17:30:00Z,28.9818,-94.9186,2.0,59.78657311,20.16996282,-99999.0,'11111222,11111222,99999999' 
TABS,ioos:station:wmo:42043:1,2011-08-02T18:00:00Z,28.9818,-94.9186,2.0,67.9532655,25.14895028,-99999.0,'11111222,11111222,99999999' 
TABS,ioos:station:wmo:42043:1,2011-08-02T18:30:00Z,28.9818,-94.9186,2.0,73.50061607,24.71781544,-99999.0,'11111222,11111222,99999999' 
TABS,ioos:station:wmo:42043:1,2011-08-02T19:00:00Z,28.9818,-94.9186,2.0,69.56918431,21.42794437,-99999.0,'11111222,11111222,99999999' 
TABS,ioos:station:wmo:42043:1,2011-08-02T19:30:00Z,28.9818,-94.9186,2.0,70.07685872,25.3257379,-99999.0,'11111222,11111222,99999999' 
TABS,ioos:station:wmo:42043:1,2011-08-02T20:00:00Z,28.9818,-94.9186,2.0,71.43246571,24.58993697,-99999.0,'11111222,11111222,99999999' 
TABS,ioos:station:wmo:42043:1,2011-08-02T20:30:00Z,28.9818,-94.9186,2.0,70.53730924,23.79996849,-99999.0,'11111222,11111222,99999999' 
TABS,ioos:station:wmo:42043:1,2011-08-02T21:00:00Z,28.9818,-94.9186,2.0,73.84729131,22.39403939,-99999.0,'11111222,11111222,99999999' 
TABS,ioos:station:wmo:42043:1,2011-08-02T21:30:00Z,28.9818,-94.9186,2.0,65.09833914,24.34314893,-99999.0,'11111222,11111222,99999999' 
TABS,ioos:station:wmo:42043:1,2011-08-02T22:00:00Z,28.9818,-94.9186,2.0,74.58992462,25.28918346,-99999.0,'11111222,11111222,99999999' 
TABS,ioos:station:wmo:42043:1,2011-08-02T22:30:00Z,28.9818,-94.9186,2.0,72.62024128,23.86975702,-99999.0,'11111222,11111222,99999999' 
TABS,ioos:station:wmo:42043:1,2011-08-02T23:00:00Z,28.9818,-94.9186,2.0,75.10833687,23.230226,-99999.0,'11111222,11111222,99999999' 
TABS,ioos:station:wmo:42043:1,2011-08-02T23:30:00Z,28.9818,-94.9186,2.0,69.79231063,19.830648,-99999.0,'11111222,11111222,99999999' 
TABS,ioos:station:wmo:42043:1,2011-08-03T00:00:00Z,28.9818,-94.9186,2.0,71.99246223,19.92606584,-99999.0,'11111222,11111222,99999999' 
TABS,ioos:station:wmo:42043:1,2011-08-03T00:30:00Z,28.9818,-94.9186,2.0,75.64263852,16.01002811,-99999.0,'11111222,11111222,99999999' 
TABS,ioos:station:wmo:42043:1,2011-08-03T01:00:00Z,28.9818,-94.9186,2.0,74.88770956,14.07682493,-99999.0,'11111222,11111222,99999999' 
TABS,ioos:station:wmo:42043:1,2011-08-03T01:30:00Z,28.9818,-94.9186,2.0,64.02862774,13.38134896,-99999.0,'11111222,11111222,99999999' 
TABS,ioos:station:wmo:42043:1,2011-08-03T02:00:00Z,28.9818,-94.9186,2.0,85.81694209,15.08017241,-99999.0,'11111222,11111222,99999999' 
TABS,ioos:station:wmo:42043:1,2011-08-03T02:30:00Z,28.9818,-94.9186,2.0,96.17678674,13.94093254,-99999.0,'11111222,11111222,99999999' 
TABS,ioos:station:wmo:42043:1,2011-08-03T03:00:00Z,28.9818,-94.9186,2.0,87.05355951,16.34160335,-99999.0,'11111222,11111222,99999999' 
TABS,ioos:station:wmo:42043:1,2011-08-03T03:30:00Z,28.9818,-94.9186,2.0,79.49554204,12.8351081,-99999.0,'11111222,11111222,99999999' 
TABS,ioos:station:wmo:42043:1,2011-08-03T04:00:00Z,28.9818,-94.9186,2.0,84.42626248,17.91470067,-99999.0,'11111222,11111222,99999999' 
TABS,ioos:station:wmo:42043:1,2011-08-03T04:30:00Z,28.9818,-94.9186,2.0,77.32449811,14.40097566,-99999.0,'11111222,11111222,99999999' 
TABS,ioos:station:wmo:42043:1,2011-08-03T05:00:00Z,28.9818,-94.9186,2.0,71.70360081,19.62199022,-99999.0,'11111222,11111222,99999999' 
TABS,ioos:station:wmo:42043:1,2011-08-03T05:30:00Z,28.9818,-94.9186,2.0,70.74721061,18.16597369,-99999.0,'11111222,11111222,99999999' 
TABS,ioos:station:wmo:42043:1,2011-08-03T06:00:00Z,28.9818,-94.9186,2.0,68.5256155,18.5475524,-99999.0,'11111222,11111222,99999999' 
TABS,ioos:station:wmo:42043:1,2011-08-03T06:30:00Z,28.9818,-94.9186,2.0,62.29925361,18.95216346,-99999.0,'11111222,11111222,99999999' 
TABS,ioos:station:wmo:42043:1,2011-08-03T07:00:00Z,28.9818,-94.9186,2.0,58.21594484,19.76380783,-99999.0,'11111222,11111222,99999999' 
TABS,ioos:station:wmo:42043:1,2011-08-03T07:30:00Z,28.9818,-94.9186,2.0,65.26031149,21.48162471,-99999.0,'11111222,11111222,99999999' 
TABS,ioos:station:wmo:42043:1,2011-08-03T08:00:00Z,28.9818,-94.9186,2.0,64.51389745,23.7512526,-99999.0,'11111222,11111222,99999999' 
TABS,ioos:station:wmo:42043:1,2011-08-03T08:30:00Z,28.9818,-94.9186,2.0,56.66396166,24.69295041,-99999.0,'11111222,11111222,99999999' 
TABS,ioos:station:wmo:42043:1,2011-08-03T09:00:00Z,28.9818,-94.9186,2.0,64.63720661,24.51270079,-99999.0,'11111222,11111222,99999999' 
TABS,ioos:station:wmo:42043:1,2011-08-03T09:30:00Z,28.9818,-94.9186,2.0,65.73214444,26.66641521,-99999.0,'11111222,11111222,99999999' 
TABS,ioos:station:wmo:42043:1,2011-08-03T10:00:00Z,28.9818,-94.9186,2.0,61.20802511,25.43435865,-99999.0,'11111222,11111222,99999999' 
TABS,ioos:station:wmo:42043:1,2011-08-03T10:30:00Z,28.9818,-94.9186,2.0,64.03376153,26.10528299,-99999.0,'11111222,11111222,99999999' 
TABS,ioos:station:wmo:42043:1,2011-08-03T11:00:00Z,28.9818,-94.9186,2.0,78.49283275,18.79784296,-99999.0,'11111222,11111222,99999999' 
TABS,ioos:station:wmo:42043:1,2011-08-03T11:30:00Z,28.9818,-94.9186,2.0,65.08105515,20.8621787,-99999.0,'11111222,11111222,99999999' 
TABS,ioos:station:wmo:42043:1,2011-08-03T12:00:00Z,28.9818,-94.9186,2.0,63.74384853,22.40125443,-99999.0,'11111222,11111222,99999999' 
TABS,ioos:station:wmo:42043:1,2011-08-03T12:30:00Z,28.9818,-94.9186,2.0,66.74764607,22.36674764,-99999.0,'11111222,11111222,99999999' 
TABS,ioos:station:wmo:42043:1,2011-08-03T13:00:00Z,28.9818,-94.9186,2.0,70.72483044,20.05415917,-99999.0,'11111222,11111222,99999999' 
TABS,ioos:station:wmo:42043:1,2011-08-03T13:30:00Z,28.9818,-94.9186,2.0,73.03209042,20.62797373,-99999.0,'11111222,11111222,99999999' 
TABS,ioos:station:wmo:42043:1,2011-08-03T14:00:00Z,28.9818,-94.9186,2.0,74.59419597,18.67087572,-99999.0,'11111222,11111222,99999999' 
TABS,ioos:station:wmo:42043:1,2011-08-03T14:30:00Z,28.9818,-94.9186,2.0,71.73516661,19.17613621,-99999.0,'11111222,11111222,99999999' 
TABS,ioos:station:wmo:42043:1,2011-08-03T15:00:00Z,28.9818,-94.9186,2.0,75.33154131,16.70444552,-99999.0,'11111222,11111222,99999999' 
TABS,ioos:station:wmo:42043:1,2011-08-03T15:30:00Z,28.9818,-94.9186,2.0,76.5156775,17.62588154,-99999.0,'11111222,11111222,99999999' 
TABS,ioos:station:wmo:42043:1,2011-08-03T16:00:00Z,28.9818,-94.9186,2.0,66.29242665,20.5437022,-99999.0,'11111222,11111222,99999999' 
TABS,ioos:station:wmo:42043:1,2011-08-03T16:30:00Z,28.9818,-94.9186,2.0,67.62144041,20.46095061,-99999.0,'11111222,11111222,99999999' 
TABS,ioos:station:wmo:42043:1,2011-08-03T17:00:00Z,28.9818,-94.9186,2.0,64.38367209,23.4998234,-99999.0,'11111222,11111222,99999999' 
TABS,ioos:station:wmo:42043:1,2011-08-03T17:30:00Z,28.9818,-94.9186,2.0,69.98679367,22.7327517,-99999.0,'11111222,11111222,99999999' 
TABS,ioos:station:wmo:42043:1,2011-08-03T18:00:00Z,28.9818,-94.9186,2.0,68.8236033,27.23941262,-99999.0,'11111222,11111222,99999999' 
TABS,ioos:station:wmo:42043:1,2011-08-03T18:30:00Z,28.9818,-94.9186,2.0,62.0510468,26.47829677,-99999.0,'11111222,11111222,99999999' 
TABS,ioos:station:wmo:42043:1,2011-08-03T19:00:00Z,28.9818,-94.9186,2.0,66.77593319,29.46779259,-99999.0,'11111222,11111222,99999999' 
TABS,ioos:station:wmo:42043:1,2011-08-03T19:30:00Z,28.9818,-94.9186,2.0,66.0913961,27.01837338,-99999.0,'11111222,11111222,99999999' 
TABS,ioos:station:wmo:42043:1,2011-08-03T20:00:00Z,28.9818,-94.9186,2.0,65.74414015,28.74787296,-99999.0,'11111222,11111222,99999999' 
TABS,ioos:station:wmo:42043:1,2011-08-03T20:30:00Z,28.9818,-94.9186,2.0,61.83802269,31.61239156,-99999.0,'11111222,11111222,99999999' 
TABS,ioos:station:wmo:42043:1,2011-08-03T21:00:00Z,28.9818,-94.9186,2.0,65.4073154,30.27640831,-99999.0,'11111222,11111222,99999999' 
TABS,ioos:station:wmo:42043:1,2011-08-03T21:30:00Z,28.9818,-94.9186,2.0,55.45334462,33.20529175,-99999.0,'11111222,11111222,99999999' 
TABS,ioos:station:wmo:42043:1,2011-08-03T22:00:00Z,28.9818,-94.9186,2.0,54.30356295,31.44859456,-99999.0,'11111222,11111222,99999999' 
TABS,ioos:station:wmo:42043:1,2011-08-03T22:30:00Z,28.9818,-94.9186,2.0,59.26897232,33.36532481,-99999.0,'11111222,11111222,99999999' 
TABS,ioos:station:wmo:42043:1,2011-08-03T23:00:00Z,28.9818,-94.9186,2.0,60.1857364,32.74395364,-99999.0,'11111222,11111222,99999999' 
TABS,ioos:station:wmo:42043:1,2011-08-03T23:30:00Z,28.9818,-94.9186,2.0,61.55330386,27.37528995,-99999.0,'11111222,11111222,99999999' 
TABS,ioos:station:wmo:42043:1,2011-08-04T00:00:00Z,28.9818,-94.9186,2.0,65.32366375,29.98854615,-99999.0,'11111222,11111222,99999999' 
TABS,ioos:station:wmo:42043:1,2011-08-04T00:30:00Z,28.9818,-94.9186,2.0,67.32680205,28.06924295,-99999.0,'11111222,11111222,99999999' 
TABS,ioos:station:wmo:42043:1,2011-08-04T01:00:00Z,28.9818,-94.9186,2.0,69.43645335,26.64792862,-99999.0,'11111222,11111222,99999999' 
TABS,ioos:station:wmo:42043:1,2011-08-04T01:30:00Z,28.9818,-94.9186,2.0,70.6982387,25.29162905,-99999.0,'11111222,11111222,99999999' 
TABS,ioos:station:wmo:42043:1,2011-08-04T02:00:00Z,28.9818,-94.9186,2.0,71.24308581,24.19496849,-99999.0,'11111222,11111222,99999999' 
TABS,ioos:station:wmo:42043:1,2011-08-04T02:30:00Z,28.9818,-94.9186,2.0,83.53565112,19.36310925,-99999.0,'11111222,11111222,99999999' 
TABS,ioos:station:wmo:42043:1,2011-08-04T03:00:00Z,28.9818,-94.9186,2.0,71.99238852,19.50547103,-99999.0,'11111222,11111222,99999999' 
TABS,ioos:station:wmo:42043:1,2011-08-04T03:30:00Z,28.9818,-94.9186,2.0,70.12754468,19.91596847,-99999.0,'11111222,11111222,99999999' 
TABS,ioos:station:wmo:42043:1,2011-08-04T04:00:00Z,28.9818,-94.9186,2.0,70.71610473,17.7138618,-99999.0,'11111222,11111222,99999999' 
TABS,ioos:station:wmo:42043:1,2011-08-04T04:30:00Z,28.9818,-94.9186,2.0,74.06840115,17.15908214,-99999.0,'11111222,11111222,99999999' 
TABS,ioos:station:wmo:42043:1,2011-08-04T05:00:00Z,28.9818,-94.9186,2.0,66.89162203,20.02688193,-99999.0,'11111222,11111222,99999999' 
TABS,ioos:station:wmo:42043:1,2011-08-04T05:30:00Z,28.9818,-94.9186,2.0,64.2948588,24.13883593,-99999.0,'11111222,11111222,99999999' 
TABS,ioos:station:wmo:42043:1,2011-08-04T06:00:00Z,28.9818,-94.9186,2.0,59.39490094,22.47018469,-99999.0,'11111222,11111222,99999999' 
TABS,ioos:station:wmo:42043:1,2011-08-04T06:30:00Z,28.9818,-94.9186,2.0,55.16283521,22.44212111,-99999.0,'11111222,11111222,99999999' 
TABS,ioos:station:wmo:42043:1,2011-08-04T07:00:00Z,28.9818,-94.9186,2.0,45.60282184,22.8549557,-99999.0,'11111222,11111222,99999999' 
TABS,ioos:station:wmo:42043:1,2011-08-04T07:30:00Z,28.9818,-94.9186,2.0,47.97566623,22.884545,-99999.0,'11111222,11111222,99999999' 
TABS,ioos:station:wmo:42043:1,2011-08-04T08:00:00Z,28.9818,-94.9186,2.0,48.09319703,22.80205692,-99999.0,'11111222,11111222,99999999' 
TABS,ioos:station:wmo:42043:1,2011-08-04T08:30:00Z,28.9818,-94.9186,2.0,52.23867394,23.00878528,-99999.0,'11111222,11111222,99999999' 
TABS,ioos:station:wmo:42043:1,2011-08-04T09:00:00Z,28.9818,-94.9186,2.0,56.94721233,23.19344951,-99999.0,'11111222,11111222,99999999' 
TABS,ioos:station:wmo:42043:1,2011-08-04T09:30:00Z,28.9818,-94.9186,2.0,52.15616788,25.88374007,-99999.0,'11111222,11111222,99999999' 
TABS,ioos:station:wmo:42043:1,2011-08-04T10:00:00Z,28.9818,-94.9186,2.0,42.23080604,21.51410003,-99999.0,'11111222,11111222,99999999' 
TABS,ioos:station:wmo:42043:1,2011-08-04T10:30:00Z,28.9818,-94.9186,2.0,49.30712734,23.72679919,-99999.0,'11111222,11111222,99999999' 
TABS,ioos:station:wmo:42043:1,2011-08-04T11:00:00Z,28.9818,-94.9186,2.0,50.07886957,21.56657599,-99999.0,'11111222,11111222,99999999' 
TABS,ioos:station:wmo:42043:1,2011-08-04T11:30:00Z,28.9818,-94.9186,2.0,39.39929434,10.65037558,-99999.0,'11111222,11111222,99999999' 
TABS,ioos:station:wmo:42043:1,2011-08-04T12:00:00Z,28.9818,-94.9186,2.0,52.5588484,18.65292738,-99999.0,'11111222,11111222,99999999' 
TABS,ioos:station:wmo:42043:1,2011-08-04T12:30:00Z,28.9818,-94.9186,2.0,60.44574466,16.03653953,-99999.0,'11111222,11111222,99999999' 
TABS,ioos:station:wmo:42043:1,2011-08-04T13:00:00Z,28.9818,-94.9186,2.0,72.8005332,13.49341321,-99999.0,'11111222,11111222,99999999' 
TABS,ioos:station:wmo:42043:1,2011-08-04T13:30:00Z,28.9818,-94.9186,2.0,44.93205818,11.90768659,-99999.0,'11111222,11111222,99999999' 
TABS,ioos:station:wmo:42043:1,2011-08-04T14:00:00Z,28.9818,-94.9186,2.0,53.5550321,11.59831884,-99999.0,'11111222,11111222,99999999' 
TABS,ioos:station:wmo:42043:1,2011-08-04T14:30:00Z,28.9818,-94.9186,2.0,67.5614154,11.18697904,-99999.0,'11111222,11111222,99999999' 
TABS,ioos:station:wmo:42043:1,2011-08-04T15:00:00Z,28.9818,-94.9186,2.0,73.68957908,11.85720456,-99999.0,'11111222,11111222,99999999' 
TABS,ioos:station:wmo:42043:1,2011-08-04T15:30:00Z,28.9818,-94.9186,2.0,83.11445006,12.76204529,-99999.0,'11111222,11111222,99999999' 
TABS,ioos:station:wmo:42043:1,2011-08-04T16:00:00Z,28.9818,-94.9186,2.0,76.61688897,8.51112801,-99999.0,'11133222,11111222,99999999' 